Погода Агинское

Погода Агинское : погода сейчас, прогноз погоды и архив. Всё, что Вы хотите узнать о погоде Агинское!

Хотите узнать прогноз погоды Агинское? Тогда Вам сюда: Погода Агинское

Поиск расширенной информации на нашем сайте:

Другие новости

Новости СМИ2

Главная страница сайта

Новости сайта

02.10.2013

Напоминаем, что на нашем новом сайте вы можете получить высокодетализированные прогнозы погоды по пунктам России, СНГ и мира (включающие важные для авиации метеовеличины, такие как направление и скорость ветра, видимость, явления погоды, количество и форма облачности, нижняя и верхняя граница облачности), а также ознакомиться с разнообразными материалами по авиационной метеорологии и подборкой полезных ссылок на эту тему.

Сайт Метеоцентр.Азия посвящён разработке технологий оптимизации авиаметеорологического обслуживания, включая проектирование и перспективное создание нескольких автоматизированных авиаметеорологических систем:
- система выпуска высокодетальных прогностических карт явлений погоды для нижнего воздушного пространства по России и ближнему зарубежью;
- система верификации прогнозов TAF (выпускаемых синоптиками официальных АМСГ РФ и ближнего зарубежья) и AUTOTAF (выпускаемых сайтом Метеоцентр.Азия) - выявление ошибок, онлайн-сопоставление с фактической погодой METAR, автоматическое внесение коррективов в прогнозы при резком отклонении фактической погоды от прогноза, подсчёт оправдываемости прогнозов по элементам и в целом;
- система обработки, анализа и отображения авиаметеорологической информации для применения провайдерами метеорологической информации.


Погода Агинское - сегодня

Время (UTC), дата Ветер
(°,м/с) 
Видим.   Явления Облачность Т
(°С)
Тd
(°С)
f(%) Тe
(°С)
Pmin
(гПа)
dP
(гПа)
Po
(мм)
O2
(г/м3)
Тmin Tmax R s Состояние
почвы
06 20.03.17 300 (СЗ) 20000 м    ясно 
+3.8 -16 22 +3  1027.1  -2.4  709  283           
09 20.03.17 300 (СЗ) 20000 м    ясно 
+4.5 -18.5 17 +4  1024.9  -1.8  707  282           
12 20.03.17 290 (З) 20000 м    ясно 
-3.2 -16.7 34 -3  1027.2  0.1  707  290    +4.8       
15 20.03.17 270 (З) 20000 м    ясно 
-9.1 -15.6 59 -9  1029  -0.2  707  296           
18 20.03.17 260 (З) 20000 м    ясно 
-12.1 -16.3 71 -12  1029.2  -0.7  707  299           
21 20.03.17 210 (ЮЗ) 20000 м    ясно 
-14.3 -17.5 77 -14  1029.9  0.1  707  302           
00 21.03.17 230 (ЮЗ) 20000 м    10/0 средняя, верхняя 
[Ac lent|Ci fib]
-11.9 -16.8 67 -15  1029.9  0.8  707  299  -15.7         
03 21.03.17 050 (СВ) 20000 м    8/0 верхняя 
[Ci fib]
+0.4 -14.1 33 -3  1025.7  -0.2  707  286           
06 21.03.17 020 (С) 4{11}  20000 м    10/4 1000 м верхняя 
[Cu med, cong|Ci fib]
+2 -13.7 30 1024.1  -1  706  284           
09 21.03.17 060 (СВ) 4{10}  20000 м    10/4 1000 м средняя, верхняя 
[Cu med, cong|Ac cuf|Ci fib]
+1.5 -14.8 29 -1  1024  -0.2  706  284           
12 21.03.17 300 (СЗ) 1{10}  20000 м    3/1 1000 м верхняя 
[Sc diur, vesp|Ci fib]
-3.5 -14.5 42 -3  1026.9  1.1  707  290    +2.4       
15 21.03.17 250 (З) 20000 м    ясно 
-10.6 -15.2 69 -12  1030.1  0.8  708  298           
18 21.03.17 230 (ЮЗ) 20000 м    ясно 
-13.4 -15.9 81 -13  1031.8  0.7  708  301           
21 21.03.17 250 (З) 20000 м    ясно 
-15.3 -17.5 83 -15  1033.1  0.5  709  304           
00 22.03.17 250 (З) 20000 м    ясно 
-11.9 -15.6 74 -12  1032.7  0.8  709  300  -16.2         
03 22.03.17 300 (СЗ) 20000 м    ясно 
+0.8 -15.7 28 -1  1028  -0.5  709  286           
06 22.03.17 360 (С) 20000 м    ясно 
+3.6 -17.2 20 +3  1025.9  -1.2  708  283           
09 22.03.17 360 (С) 20000 м    ясно 
+3.6 -18.3 18 +4  1025.4  -0.4  708  283           
12 22.03.17 310 (СЗ) 20000 м    1/0 верхняя 
[Ci fib]
-4.3 -16.8 37 -7  1028.9  0.9  708  291    +3.8       
15 22.03.17 240 (ЮЗ) 20000 м    ясно 
-9.5 -16.4 57 -9  1031.9  1.2  709  297           
18 22.03.17 230 (ЮЗ) 20000 м    ясно 
-12.1 -16.7 69 -12  1033.3  0.4  710  300           
21 22.03.17 250 (З) 20000 м    ясно 
-14.2 -17.8 74 -14  1034.2  0.2  710  303           
00 23.03.17 270 (З) 20000 м    4/0 верхняя 
[Ci fib]
-10.9 -16.1 65 -11  1033.5  0.4  710  299  -15         
03 23.03.17 260 (З) 20000 м    10/0 верхняя 
[Cs]
+3.6 -14.7 25 +4  1027.5  -1.2  709  283           
06 23.03.17 310 (СЗ) 20000 м    10/0 верхняя 
[Cs]
+5.7 -16.1 19 +5  1024.6  -2  708  280           
Время (UTC), дата Ветер
(°,м/с) 
Видим.   Явления Облачность Т
(°С)
Тd
(°С)
f(%) Тe
(°С)
Pmin
(гПа)
dP
(гПа)
Po
(мм)
O2
(г/м3)
Тmin Tmax R s Состояние
почвы

Для получения пояснительной информации подведите курсор к названию столбца.

ПОГОДА Агинское - архив

Всё, что Вы хотите узнать о погоде Агинское - удобно и подробно!

Выберите нужную дату (начиная с 1 января 2015* года) и нажмите кнопку "Найти".
Будут отображены архивные сводки погоды по пункту Агинское, начиная с указанной даты.


Отображать данные в формате CSV (для использования в таблицах Excel)


Внимание! Наш архив погоды предназначен исключительно для личного некоммерческого использования в познавательных целях. Если Вам необходимы официальные справки о состоянии погоды (для производственных, юридических, коммерческих и т.п. целей), обращайтесь в органы Росгидромета.

*Примечание: данная дата относится к архиву по метеостанциям СССР (Россия, СНГ, Балтия).
Архив по метеостанциям Зарубежной Европы и Азии (кроме Китая) хранится 10 дней, по другим регионам земного шара (Китай, Африка, Америка, Австралия, Океания) - 1 день.

Агинское - район местоположения метеостанции


Название, широта, долгота, высота метеостанции:
Агинское 51.1°ш. 114.5°д. 681 м над ур. моря [Российская Федерация]

Дополнительная информация

В oтличие oт бoльшинства пoгoдных сайтoв мы публикуем пoдрoбную метеoинфoрмацию в детальнoм прoфессиoнальнoм фoрмате.

Характеристики температуры и влажнoсти вoздуха измеряются на высoте 2 м в тени вдали oт зданий и деревьев.
Скoрoсть ветра измеряется на высoте 10 м (на урoвне рoста челoвека скoрoсть ветра ниже в 1.5-2 раза). Если метеoстанция нахoдится в гoрoде или в лесу, тo скoрoсть ветра занижена на 2-4 м/с пo сравнению с oткрытым местoм. Скoрoсть ветра над акватoриями крупных рек и oзёр, а также на вершинах хoлмoв на 2-5 м/с выше, чем в oбычных услoвиях.
Атмoсфернoе давление в разных тoчках местнoсти мoжет значительнo oтличаться oт давления на метеoстанции, в зависимoсти oт услoвий рельефа (при пoдъёме на 10 м давление пoнижается примернo на 1 мм рт.ст.).